Flag for Norway Weather past 2 weeks in Hamar, Norway

Now
38 °F

Chilly.


Feels Like: 38 °F
Forecast: 51 / 59 °F
Wind: 1 mph from Southeast

Location: Haugedalshogda

Current Time: Aug 29, 2014 at 4:07:42 AM

Latest Report: Aug 29, 2014 at 3:00 AM


Visibility: N/A

Pressure: 30.08 "Hg

Humidity: 93%

Dew point: 36 °F

Location of HamarLocation

Historic Weather in Hamar — Graph

°F

Hamar temperature yesterday

Maximum temperature yesterday: 65 °F (at 7:00 PM)
Minimum temperature yesterday: 40 °F (at 5:00 AM)
Average temperature yesterday: 52 °F

Past Weeks' High & Low Weather Summary

 TemperatureHumidityPressure
High66 °F (Aug 14, 3:00 PM)95% (Aug 23, 5:00 AM)30.07 "Hg (Aug 23, 5:00 AM)
Low39 °F (Aug 18, 11:00 PM)38% (Aug 21, 3:00 PM)29.18 "Hg (Aug 18, 4:00 PM)
Average53 °F80%29.63 "Hg
* Reported Aug 14 2:00 AM — Aug 29 2:00 AM, Hamar, Weather by CustomWeather, © 2014

Note: Actual official high and low records may vary slightly from our data, if they occured in-between our weather recording intervals... More about our weather records

Advertising

Hamar weather history for previous 24 hours

 ConditionsComfort  
Time TempWeatherWind HumidityBarometerVisibility
2:00 AM
Aug 29
40 °FChilly.1 mph93%30.07 "HgN/A
1:00 AM40 °FChilly.1 mph92%30.07 "HgN/A
12:00 AM39 °FChilly.1 mph91%30.06 "HgN/A
11:00 PM
Aug 28
43 °FQuite cool.1 mph91%30.04 "HgN/A
10:00 PM43 °FQuite cool.1 mph90%30.03 "HgN/A
9:00 PM47 °FCool.1 mph84%30.01 "HgN/A
8:00 PM56 °FCool.1 mph66%29.98 "HgN/A
7:00 PM65 °FMild.1 mph41%29.96 "HgN/A
6:00 PM65 °FMild.2 mph42%29.97 "HgN/A
5:00 PM64 °FMild.3 mph42%29.98 "HgN/A
4:00 PM64 °FMild.3 mph42%29.98 "HgN/A
3:00 PM63 °FMild.3 mph42%29.98 "HgN/A
2:00 PM62 °FRefreshingly cool.6 mph46%29.98 "HgN/A
1:00 PM61 °FRefreshingly cool.5 mph47%29.99 "HgN/A
12:00 PM59 °FRefreshingly cool.6 mph50%30.00 "HgN/A
11:00 AM58 °FRefreshingly cool.6 mph53%30.00 "HgN/A
10:00 AM56 °FRefreshingly cool.5 mph59%30.01 "HgN/A
9:00 AM51 °FCool.3 mph68%30.03 "HgN/A
8:00 AM47 °FCool.1 mph80%30.04 "HgN/A
7:00 AM42 °FQuite cool.1 mph91%30.05 "HgN/A
6:00 AM41 °FQuite cool.1 mph92%30.04 "HgN/A
5:00 AM40 °FQuite cool.1 mph92%30.04 "HgN/A
4:00 AM41 °FQuite cool.1 mph90%30.03 "HgN/A
Weather by CustomWeather, © 2014

See weather overviewHow to use our weather pages